Location: Haliburton Scout Reserve
(45.0900°N, 78.3200°W)
Time: 12:58:28
(UTC-05:00)

N. Korean satellite - Pass Details

Date: 06 December 2021
Orbit: 447 x 491 km, 97.3° (Epoch: 23 January)

Event Time Altitude Azimuth Distance (km) Brightness Sun altitude
Rises 17:18:28 0° 194° (SSW) 2,521 10.8 -8.2°
Reaches altitude 10° 17:20:48 10° 208° (SSW) 1,639 10.1 -8.5°
Maximum altitude 17:23:43 24° 265° (W) 1,011 9.2 -9.0°
Drops below altitude 10° 17:26:38 10° 321° (NW) 1,628 9.4 -9.5°
Sets 17:28:56 0° 336° (NNW) 2,500 10.2 -9.9°
